When you browse on this site, cookies collect data to enhance your experience and personalize the content and advertising you see.
Visit our Privacy Policy to learn more. By continuing to use the site, you agree to this use of cookies and data.
  • In United Kingdom
  • List of Countries
  • For 7 days
  • Water Temperature
  • Satellite Maps
  • Weather Map
  • Weather Widgets
  • user-avatar
    Login

    Hourly Weather Giumri

    Today, 21 May, Tuesday

    Time Temperature Precipitation Wind Pressure Humidity
    00:00 +9°C° 0.2 mm 2 mps 634 mmHg 86%
    01:00 +9°C° 0.1 mm 2 mps 634 mmHg 88%
    02:00 +9°C° 0.1 mm 2 mps 634 mmHg 89%
    03:00 +9°C° 0 mm 2 mps 633 mmHg 90%
    04:00 +9°C° 0.3 mm 2 mps 633 mmHg 89%
    05:00 +10°C° 0.3 mm 2 mps 634 mmHg 88%
    06:00 +10°C° 0.3 mm 2 mps 635 mmHg 87%
    07:00 +13°C° 0.2 mm 2 mps 635 mmHg 81%
    08:00 +14°C° 0.2 mm 2 mps 636 mmHg 75%
    09:00 +14°C° 0 mm 3 mps 636 mmHg 70%
    10:00 +16°C° 0.1 mm 3 mps 636 mmHg 66%
    11:00 +17°C° 0.1 mm 3 mps 636 mmHg 62%
    12:00 +18°C° 0.1 mm 3 mps 637 mmHg 58%
    13:00 +18°C° 0.1 mm 3 mps 637 mmHg 58%
    14:00 +18°C° 0.1 mm 3 mps 637 mmHg 58%
    15:00 +19°C° 0.1 mm 3 mps 637 mmHg 57%
    16:00 +18°C° 0.1 mm 3 mps 636 mmHg 61%
    17:00 +17°C° 0.1 mm 3 mps 636 mmHg 65%
    18:00 +16°C° 0.1 mm 3 mps 636 mmHg 69%
    19:00 +14°C° 0.1 mm 3 mps 636 mmHg 76%
    20:00 +12°C° 0.1 mm 3 mps 636 mmHg 83%
    21:00 +10°C° 0.1 mm 2 mps 635 mmHg 90%
    22:00 +10°C° 0 mm 2 mps 635 mmHg 90%
    23:00 +9°C° 0 mm 2 mps 635 mmHg 91%

    Tomorrow, 22 May, Wednesday

    Time Temperature Precipitation Wind Pressure Humidity
    00:00 +9°C° 0 mm 2 mps 635 mmHg 92%
    01:00 +9°C° 0 mm 2 mps 635 mmHg 92%
    02:00 +8°C° 0 mm 2 mps 635 mmHg 91%
    03:00 +8°C° 0 mm 2 mps 635 mmHg 91%
    04:00 +10°C° 0 mm 1 mps 635 mmHg 89%
    05:00 +10°C° 0 mm 1 mps 635 mmHg 86%
    06:00 +11°C° 0 mm 1 mps 635 mmHg 84%
    07:00 +13°C° 0 mm 1 mps 636 mmHg 76%
    08:00 +15°C° 0 mm 2 mps 636 mmHg 69%
    09:00 +17°C° 0 mm 2 mps 637 mmHg 61%
    10:00 +17°C° 0.1 mm 3 mps 637 mmHg 60%
    11:00 +18°C° 0.1 mm 3 mps 637 mmHg 59%
    12:00 +18°C° 0.1 mm 3 mps 636 mmHg 58%
    13:00 +18°C° 0.4 mm 3 mps 636 mmHg 57%
    14:00 +19°C° 0.4 mm 2 mps 636 mmHg 57%
    15:00 +19°C° 0.4 mm 2 mps 636 mmHg 56%
    16:00 +18°C° 0.7 mm 2 mps 636 mmHg 60%
    17:00 +18°C° 0.7 mm 2 mps 636 mmHg 64%
    18:00 +17°C° 0.7 mm 2 mps 636 mmHg 68%
    19:00 +15°C° 0 mm 2 mps 636 mmHg 73%
    20:00 +13°C° 0 mm 2 mps 635 mmHg 78%
    21:00 +12°C° 0 mm 1 mps 635 mmHg 82%
    22:00 +11°C° 0 mm 1 mps 635 mmHg 82%
    23:00 +10°C° 0 mm 1 mps 635 mmHg 81%

    Day after tomorrow, 23 May, Thursday

    Time Temperature Precipitation Wind Pressure Humidity
    00:00 +10°C° 0 mm 1 mps 634 mmHg 81%
    01:00 +9°C° 0 mm 1 mps 634 mmHg 79%
    02:00 +9°C° 0 mm 1 mps 634 mmHg 76%
    03:00 +8°C° 0 mm 1 mps 633 mmHg 74%
    04:00 +9°C° 0 mm 1 mps 633 mmHg 70%
    05:00 +10°C° 0 mm 1 mps 634 mmHg 67%
    06:00 +10°C° 0 mm 1 mps 634 mmHg 63%
    07:00 +13°C° 0 mm 1 mps 634 mmHg 57%
    08:00 +15°C° 0 mm 2 mps 635 mmHg 51%
    09:00 +17°C° 0 mm 2 mps 635 mmHg 46%
    10:00 +18°C° 0 mm 2 mps 635 mmHg 44%
    11:00 +19°C° 0 mm 3 mps 635 mmHg 43%
    12:00 +21°C° 0 mm 3 mps 635 mmHg 41%
    13:00 +21°C° 0.1 mm 4 mps 635 mmHg 42%
    14:00 +21°C° 0.1 mm 4 mps 635 mmHg 43%
    15:00 +21°C° 0.1 mm 4 mps 635 mmHg 44%
    16:00 +20°C° 0.1 mm 4 mps 635 mmHg 48%
    17:00 +19°C° 0.1 mm 3 mps 634 mmHg 52%
    18:00 +18°C° 0.1 mm 3 mps 634 mmHg 56%
    19:00 +16°C° 0 mm 3 mps 634 mmHg 57%
    20:00 +14°C° 0 mm 2 mps 634 mmHg 59%
    21:00 +12°C° 0 mm 2 mps 634 mmHg 60%
    22:00 +10°C° 0 mm 2 mps 634 mmHg 60%
    23:00 +10°C° 0 mm 2 mps 634 mmHg 61%

    24 May, Friday

    Time Temperature Precipitation Wind Pressure Humidity
    00:00 +10°C° 0 mm 1 mps 634 mmHg 61%
    01:00 +10°C° 0 mm 1 mps 634 mmHg 62%
    02:00 +9°C° 0 mm 1 mps 634 mmHg 64%
    03:00 +9°C° 0 mm 1 mps 633 mmHg 65%
    04:00 +10°C° 0 mm 1 mps 634 mmHg 65%
    05:00 +11°C° 0 mm 1 mps 634 mmHg 66%
    06:00 +11°C° 0 mm 1 mps 634 mmHg 67%
    07:00 +13°C° 0 mm 1 mps 635 mmHg 63%
    08:00 +15°C° 0 mm 2 mps 635 mmHg 59%
    09:00 +17°C° 0 mm 2 mps 636 mmHg 56%
    10:00 +18°C° 0 mm 3 mps 636 mmHg 54%
    11:00 +20°C° 0 mm 4 mps 636 mmHg 52%
    12:00 +21°C° 0 mm 4 mps 636 mmHg 50%
    13:00 +21°C° 0.2 mm 4 mps 636 mmHg 49%
    14:00 +22°C° 0.2 mm 5 mps 636 mmHg 47%
    15:00 +23°C° 0.2 mm 5 mps 636 mmHg 46%
    16:00 +22°C° 0.3 mm 4 mps 636 mmHg 50%
    17:00 +21°C° 0.3 mm 3 mps 636 mmHg 55%
    18:00 +21°C° 0.3 mm 2 mps 636 mmHg 59%
    19:00 +19°C° 0.2 mm 2 mps 636 mmHg 63%
    20:00 +16°C° 0.2 mm 1 mps 636 mmHg 66%
    21:00 +14°C° 0.2 mm 1 mps 636 mmHg 70%
    22:00 +14°C° 0.1 mm 1 mps 636 mmHg 71%
    23:00 +14°C° 0.1 mm 1 mps 636 mmHg 72%

    25 May, Saturday

    Time Temperature Precipitation Wind Pressure Humidity
    00:00 +14°C° 0.1 mm 1 mps 636 mmHg 73%
    01:00 +13°C° 0.2 mm 1 mps 636 mmHg 76%
    02:00 +13°C° 0.2 mm 1 mps 635 mmHg 79%
    03:00 +12°C° 0.2 mm 1 mps 635 mmHg 82%
    04:00 +13°C° 0.1 mm 1 mps 636 mmHg 80%
    05:00 +14°C° 0.1 mm 1 mps 636 mmHg 78%
    06:00 +15°C° 0.1 mm 1 mps 636 mmHg 76%
    07:00 +17°C° 0 mm 2 mps 637 mmHg 68%
    08:00 +19°C° 0 mm 3 mps 637 mmHg 60%
    09:00 +21°C° 0 mm 4 mps 637 mmHg 52%
    10:00 +22°C° 0 mm 5 mps 637 mmHg 49%
    11:00 +23°C° 0 mm 5 mps 637 mmHg 45%
    12:00 +26°C° 0 mm 5 mps 637 mmHg 42%
    13:00 +26°C° 0.1 mm 6 mps 637 mmHg 40%
    14:00 +27°C° 0.1 mm 6 mps 637 mmHg 38%
    15:00 +27°C° 0.1 mm 7 mps 637 mmHg 36%
    16:00 +26°C° 0 mm 6 mps 636 mmHg 40%
    17:00 +24°C° 0 mm 6 mps 636 mmHg 44%
    18:00 +23°C° 0 mm 6 mps 636 mmHg 48%
    19:00 +21°C° 0.2 mm 5 mps 635 mmHg 51%
    20:00 +19°C° 0.2 mm 4 mps 635 mmHg 55%
    21:00 +16°C° 0.2 mm 3 mps 634 mmHg 59%
    22:00 +16°C° 0 mm 3 mps 634 mmHg 59%
    23:00 +15°C° 0 mm 2 mps 634 mmHg 59%

    26 May, Sunday

    Time Temperature Precipitation Wind Pressure Humidity
    00:00 +15°C° 0 mm 2 mps 634 mmHg 59%
    01:00 +14°C° 0 mm 2 mps 633 mmHg 60%
    02:00 +14°C° 0 mm 2 mps 633 mmHg 62%
    03:00 +13°C° 0 mm 1 mps 633 mmHg 64%
    04:00 +13°C° 0 mm 1 mps 633 mmHg 65%
    05:00 +14°C° 0 mm 1 mps 633 mmHg 66%
    06:00 +14°C° 0 mm 1 mps 634 mmHg 67%
    07:00 +18°C° 0 mm 1 mps 634 mmHg 60%
    08:00 +20°C° 0 mm 1 mps 635 mmHg 52%
    09:00 +22°C° 0 mm 1 mps 635 mmHg 45%
    10:00 +23°C° 0 mm 2 mps 635 mmHg 41%
    11:00 +24°C° 0 mm 3 mps 636 mmHg 37%
    12:00 +25°C° 0 mm 3 mps 636 mmHg 33%
    13:00 +25°C° 0.1 mm 4 mps 636 mmHg 33%
    14:00 +26°C° 0.1 mm 4 mps 636 mmHg 32%
    15:00 +26°C° 0.1 mm 5 mps 636 mmHg 31%
    16:00 +23°C° 0.4 mm 5 mps 635 mmHg 40%
    17:00 +21°C° 0.4 mm 4 mps 635 mmHg 49%
    18:00 +20°C° 0.4 mm 4 mps 634 mmHg 58%
    19:00 +18°C° 0.2 mm 3 mps 634 mmHg 64%
    20:00 +14°C° 0.2 mm 3 mps 634 mmHg 70%
    21:00 +13°C° 0.2 mm 2 mps 634 mmHg 76%
    22:00 +13°C° 0.3 mm 2 mps 634 mmHg 77%
    23:00 +12°C° 0.3 mm 2 mps 634 mmHg 78%
    Show more